Regional Weather Roundup
Issued by NWS

Home | Current Version | Previous Version | Graphics & Text | Print | Product List | Glossary On
Versions: 1 2 3 4 5 6 7 8 9 10 11 12 13 14 15 16 17 18 19 20 21 22 23 24 25 26 27 28 29 30 31 32 33 34 35 36 37 38 39 40 41 42 43 44 45 46 47 48 49 50
000
ASUS43 KFSD 290302
RWRSD

WEATHER ROUNDUP FOR SOUTH DAKOTA
NATIONAL WEATHER SERVICE SIOUX FALLS SD
1000 PM CDT FRI APR 28 2017

NOTE: "FAIR" INDICATES FEW OR NO CLOUDS BELOW 12,000 FEET WITH NO
SIGNIFICANT WEATHER AND/OR OBSTRUCTIONS TO VISIBILITY.


SDZ001>005-009-010-012>017-290400-
NORTHWEST AND NORTH CENTRAL SOUTH DAKOTA

CITY           SKY/WX    TMP DP  RH WIND       PRES   REMARKS
BUFFALO          N/A     44  26  49 E8        30.10R
FAITH            N/A     45  16  31 SE5       30.16R
MOBRIDGE       CLOUDY    46  13  26 NE7       30.13R
$$

SDZ012>016-024>037-041>051-057-063-072>074-290400-
SOUTHWEST AND SOUTH CENTRAL SOUTH DAKOTA

CITY           SKY/WX    TMP DP  RH WIND       PRES   REMARKS
RAPID CTY ARPT CLOUDY    36  28  73 NE6       30.15R
PIERRE         MOCLDY    43  18  36 NE5       30.14R
CUSTER         CLOUDY    31  23  72 NE6       30.11R WCI  25
ELLSWORTH AFB  CLOUDY    43  25  48 E5        30.15R
PHILIP         CLOUDY    40  23  50 NE7       30.15R
PINE RIDGE     CLOUDY    39  29  67 N6        30.13R
SPEARFISH      FAIR      36  30  80 S6        30.16R
WINNER         FAIR      45  25  45 NE8       30.11R
$$

SDZ004>011-016>023-039-040-290400-
NORTHEAST SOUTH DAKOTA

CITY           SKY/WX    TMP DP  RH WIND       PRES   REMARKS
ABERDEEN       CLOUDY    38  21  50 CALM      30.14R
WATERTOWN      PTCLDY    38  19  46 N5        30.11R
BROOKINGS      CLEAR     38  24  57 CALM      30.12R
SISSETON         N/A     34  23  64 NE9       30.12R WCI  27
$$

SDZ017-020-022-023-036>040-048>070-290400-
SOUTHEAST SOUTH DAKOTA

CITY           SKY/WX    TMP DP  RH WIND       PRES   REMARKS
SIOUX FALLS    CLOUDY    42  28  57 N9        30.10R
HURON          CLOUDY    39  21  48 NE6       30.14R
CHAMBERLAIN    PTCLDY    44  23  43 N6        30.12R
MITCHELL       PTCLDY    39  24  55 NE8       30.13R
YANKTON        CLOUDY    43  30  61 N8        30.07R
$$

ABBREVIATIONS USED IN REMARKS
   TC - TEMPERATURE IN CELSIUS
  WCI - WIND CHILL INDEX
   HX - HEAT INDEX
  VSB - VISIBILITY





USA.gov is the U.S. government's official web portal to all federal, state and local government web resources and services.